Dickinson, ND

6:47 PM MST on February 20, 2018 (GMT -0700)
Dickinson Municipal

Weather History for KDIK - May, 2014

Change the Weather History Date:

Thursday, May 29, 2014

  Actual Average Record
Temperature  
Mean Temperature 74 °F 57 °F  
Max Temperature 88 °F 70 °F 102 °F (1934)
Min Temperature 59 °F 44 °F 17 °F (1947)
Degree Days  
Heating Degree Days 0 8  
Month to date heating degree days 381 362  
Since 1 July heating degree days 8994 8424  
Cooling Degree Days 9 0  
Month to date cooling degree days 30 0  
Year to date cooling degree days 30 1  
Growing Degree Days 24 (Base 50)    
Moisture  
Dew Point 58 °F    
Average Humidity 62    
Maximum Humidity 84    
Minimum Humidity 40    
Precipitation  
Precipitation 0.03 in 0.08 in 1.66 in (1962)
Month to date precipitation 5.76 2.14  
Year to date precipitation 7.62 4.93  
Sea Level Pressure  
Sea Level Pressure 29.87 in    
Wind  
Wind Speed 17 mph (WNW)    
Max Wind Speed 30 mph    
Max Gust Speed 36 mph    
Visibility 10 miles    
Events Rain , Thunderstorm    
T = Trace of Precipitation, MM = Missing Value Source: NWS Daily Summary

Daily Weather History Graph

Daily Weather History Graph

Search for Another Location

Airport or City:

Trip Planner

Search our weather history database for the weather conditions in past years. The results will help you decide how hot, cold, wet, or windy it might be!

Date:

Astronomy

May. 29, 2014 Rise Set
Actual Time 5:02 AM MDT 8:35 PM MDT
Civil Twilight 4:24 AM MDT 9:13 PM MDT
Nautical Twilight 3:34 AM MDT 10:03 PM MDT
Astronomical Twilight 2:27 AM MDT 11:11 PM MDT
Moon 6:01 AM MDT (5/29) 9:23 PM MDT (5/29)
Length of Visible Light 16h 48m
Length of Day
15h 32m
New Moon, 1% of the Moon is Illuminated
May 29
New Moon
Jun 5
First Quarter
Jun 12
Full
Jun 19
Last Quarter
Jun 27
New

Hourly Weather History & Observations

Time (MDT) Temp. Heat Index Dew Point Humidity Pressure Visibility Wind Dir Wind Speed Gust Speed Precip Events Conditions
12:56 AM 69.1 °F - 55.9 °F 63% 29.81 in 10.0 mi SSE 20.7 mph 28.8 mph N/A   Clear
1:56 AM 68.0 °F - 55.9 °F 65% 29.79 in 10.0 mi SSE 23.0 mph - N/A   Clear
3:56 AM 66.9 °F - 55.9 °F 68% 29.78 in 10.0 mi SSE 21.9 mph 31.1 mph N/A   Clear
4:56 AM 66.0 °F - 55.0 °F 68% 29.77 in 10.0 mi SSE 21.9 mph 29.9 mph N/A   Clear
6:56 AM 66.0 °F - 55.9 °F 70% 29.76 in 10.0 mi SSE 25.3 mph 29.9 mph N/A   Clear
7:56 AM 69.1 °F - 55.9 °F 63% 29.76 in 10.0 mi SSE 24.2 mph 32.2 mph N/A   Clear
8:56 AM 75.0 °F - 57.9 °F 55% 29.77 in 10.0 mi SSE 21.9 mph 28.8 mph N/A   Clear
9:56 AM 75.9 °F - 57.9 °F 54% 29.77 in 10.0 mi South 19.6 mph - N/A   Clear
10:56 AM 82.0 °F 82.1 °F 59.0 °F 45% 29.76 in 10.0 mi South 23.0 mph 32.2 mph N/A   Clear
11:56 AM 84.9 °F 84.8 °F 60.1 °F 43% 29.76 in 10.0 mi South 24.2 mph 31.1 mph N/A   Clear
12:56 PM 87.1 °F 86.7 °F 60.1 °F 40% 29.76 in 10.0 mi South 21.9 mph 28.8 mph N/A   Clear
1:56 PM 87.1 °F 87.5 °F 62.1 °F 43% 29.77 in 10.0 mi West 10.4 mph 31.1 mph N/A   Scattered Clouds
2:56 PM 84.9 °F 85.9 °F 63.0 °F 48% 29.78 in 10.0 mi West 13.8 mph - N/A   Clear
3:56 PM 84.0 °F 85.8 °F 64.9 °F 53% 29.77 in 10.0 mi NW 15.0 mph - N/A Thunderstorm Partly Cloudy
4:23 PM 80.1 °F 81.5 °F 63.0 °F 56% 29.85 in 10.0 mi WNW 18.4 mph 27.6 mph N/A Thunderstorm Thunderstorm
4:56 PM 75.0 °F - 61.0 °F 62% 29.83 in 10.0 mi NW 11.5 mph - N/A Thunderstorm Mostly Cloudy
5:09 PM 75.9 °F - 61.0 °F 60% 29.88 in 10.0 mi NNW 11.5 mph - N/A   Scattered Clouds
5:24 PM 75.0 °F - 61.0 °F 62% 29.89 in 10.0 mi North 10.4 mph - N/A Thunderstorm Partly Cloudy
5:39 PM 75.0 °F - 62.1 °F 64% 29.90 in 10.0 mi NW 6.9 mph - N/A   Mostly Cloudy
5:56 PM 77.0 °F - 62.1 °F 60% 29.84 in 10.0 mi NNW 10.4 mph - N/A   Mostly Cloudy
6:22 PM 73.0 °F - 61.0 °F 66% 29.90 in 10.0 mi NW 16.1 mph 25.3 mph N/A Thunderstorm Mostly Cloudy
6:45 PM 68.0 °F - 55.9 °F 65% 29.91 in 10.0 mi NW 23.0 mph 34.5 mph N/A   Overcast
6:56 PM 66.0 °F - 57.0 °F 73% 29.89 in 10.0 mi NW 20.7 mph 28.8 mph N/A   Overcast
7:16 PM 64.0 °F - 55.9 °F 75% 29.92 in 10.0 mi NNW 19.6 mph 27.6 mph N/A Thunderstorm Overcast
7:56 PM 61.0 °F - 55.0 °F 81% 29.90 in 10.0 mi NW 16.1 mph 24.2 mph N/A Thunderstorm Overcast
8:16 PM 63.0 °F - 54.0 °F 72% 29.93 in 10.0 mi NNW 13.8 mph - N/A Thunderstorm Thunderstorm
8:31 PM 63.0 °F - 54.0 °F 72% 29.93 in 10.0 mi North 13.8 mph 23.0 mph N/A   Overcast
8:56 PM 63.0 °F - 53.1 °F 70% 29.91 in 10.0 mi North 8.1 mph - N/A   Overcast
9:03 PM 63.0 °F - 53.1 °F 70% 29.95 in 10.0 mi North 9.2 mph - N/A Thunderstorm Overcast
9:19 PM 64.0 °F - 52.0 °F 65% 29.98 in 10.0 mi NNW 6.9 mph - N/A Thunderstorm Thunderstorm
9:56 PM 62.1 °F - 54.0 °F 75% 29.99 in 10.0 mi NNW 16.1 mph - 0.02 in Rain , Thunderstorm Light Thunderstorms and Rain
10:01 PM 62.1 °F - 54.0 °F 75% 30.04 in 10.0 mi NW 17.3 mph - 0.00 in Rain , Thunderstorm Light Rain
10:13 PM 61.0 °F - 55.0 °F 81% 30.05 in 10.0 mi NW 11.5 mph - 0.00 in Rain Light Rain
10:56 PM 60.1 °F - 57.0 °F 90% 30.01 in 10.0 mi West 6.9 mph - 0.01 in Rain Light Rain
11:56 PM 60.1 °F - 55.0 °F 83% 29.99 in 10.0 mi NNW 5.8 mph - 0.00 in   Clear